Flag for Poland Weather past 2 weeks in Bytom, Poland

Now
59 °F

Clear.


Feels Like: 59 °F
Forecast: 56 / 82 °F
Wind: 5 mph from East

Location: Katowice Airport

Current Time: Jul 3, 2015 at 12:09:43 AM

Latest Report: Jul 2, 2015 at 11:30 PM


Visibility: 10 mi

Pressure: 30.33 "Hg

Humidity: 77%

Dew point: 52 °F

Location of BytomLocation

Historic Weather in Bytom — Graph

°F

Bytom temperature yesterday

Maximum temperature yesterday: 79 °F (at 1:30 PM)
Minimum temperature yesterday: 46 °F (at 5:00 AM)
Average temperature yesterday: 67 °F

Past Weeks' High & Low Weather Summary

 TemperatureHumidityPressure
High79 °F (Jul 2, 1:30 PM)100% (Jun 18, 12:30 AM)30.33 "Hg (Jun 18, 12:30 AM)
Low39 °F (Jun 20, 4:30 AM)34% (Jul 2, 5:30 PM)29.74 "Hg (Jun 23, 3:30 AM)
Average59 °F76%30.05 "Hg
* Reported Jun 17 10:00 PM — Jul 2 10:30 PM, Bytom, Weather by CustomWeather, © 2015

Note: Actual official high and low records may vary slightly from our data, if they occured in-between our weather recording intervals... More about our weather records

Advertising

Bytom weather history for previous 24 hours

 ConditionsComfort  
Time TempWeatherWind HumidityBarometerVisibility
10:30 PM
Thu, Jul 2
61 °FClear.6 mph72%30.33 "Hg10 mi
10:00 PM63 °FClear.6 mph73%30.33 "Hg10 mi
9:30 PM64 °FSunny.6 mph68%30.33 "Hg10 mi
9:00 PM68 °FSunny.5 mph60%30.30 "Hg10 mi
8:30 PM72 °FSunny.7 mph53%30.30 "Hg10 mi
8:00 PM75 °FSunny.6 mph44%30.30 "Hg10 mi
7:30 PM75 °FSunny.9 mph44%30.30 "Hg10 mi
7:00 PM77 °FSunny.9 mph36%30.30 "Hg10 mi
6:30 PM77 °FPassing clouds.8 mph39%30.30 "HgN/A
6:00 PM79 °FPassing clouds.8 mph37%30.30 "HgN/A
5:30 PM79 °FPassing clouds.5 mph34%30.30 "HgN/A
5:00 PM77 °FPassing clouds.8 mph39%30.30 "HgN/A
4:30 PM77 °FSunny.8 mph36%30.30 "Hg10 mi
4:00 PM79 °FPassing clouds.9 mph37%30.30 "HgN/A
3:30 PM75 °FPassing clouds.10 mph41%30.30 "HgN/A
3:00 PM77 °FPassing clouds.10 mph39%30.30 "HgN/A
2:30 PM79 °FPassing clouds.9 mph39%30.30 "HgN/A
2:00 PM77 °FPassing clouds.9 mph42%30.30 "HgN/A
1:30 PM79 °FPassing clouds.8 mph39%30.30 "HgN/A
1:00 PM77 °FPassing clouds.8 mph39%30.30 "HgN/A
12:30 PM75 °FPassing clouds.8 mph47%30.30 "HgN/A
12:00 PM75 °FSunny.6 mph41%30.30 "Hg10 mi
11:30 AM77 °FPassing clouds.10 mph39%30.30 "HgN/A
11:00 AM75 °FPassing clouds.7 mph41%30.30 "HgN/A
10:30 AM75 °FPassing clouds.9 mph41%30.30 "HgN/A
10:00 AM75 °FPassing clouds.8 mph41%30.30 "HgN/A
9:30 AM73 °FSunny.2 mph44%30.30 "Hg10 mi
9:00 AM73 °FSunny.2 mph44%30.30 "Hg10 mi
8:30 AM72 °FSunny.2 mph50%30.30 "Hg10 mi
8:00 AM68 °FPassing clouds.3 mph60%30.30 "HgN/A
7:30 AM66 °FPassing clouds.3 mph60%30.30 "HgN/A
7:00 AM61 °FSunny.1 mph83%30.27 "Hg10 mi
6:00 AM52 °FSunny.2 mph88%30.27 "Hg10 mi
5:30 AM48 °FPassing clouds.3 mph94%30.27 "HgN/A
5:00 AM46 °FFog.1 mph100%30.27 "HgN/A
4:30 AM48 °FFog.1 mph94%30.27 "HgN/A
4:00 AM48 °FClear.2 mph94%30.27 "Hg10 mi
3:30 AM48 °FClear.2 mph94%30.27 "Hg10 mi
3:00 AM50 °FClear.1 mph94%30.27 "Hg10 mi
2:30 AM50 °FClear.1 mph94%30.27 "Hg10 mi
2:00 AM50 °FClear.1 mph94%30.27 "Hg10 mi
1:30 AM52 °FClear.2 mph88%30.27 "Hg10 mi
1:00 AM54 °FClear.3 mph88%30.27 "Hg10 mi
12:30 AM54 °FClear.3 mph88%30.27 "Hg10 mi
12:00 AM55 °FClear.3 mph82%30.27 "Hg10 mi
Weather by CustomWeather, © 2015

See weather overviewHow to use our weather pages